CAPE
0 0 0 0 0 0 0 0 0 0 0 0 0 0 0 0 0 0 0 0 0 0 0 0 0 0 12 7 107 157 104 16 15 61 63 128 101 192 160 28 0 138 0 34 160
0 0 0 0 0 0 0 0 0 0 0 0 0 0 0 0 0 0 0 0 0 0 0 0 0 0 3 75 169 200 94 14 18 74 156 194 127 121 59 108 81 0 8 24 149
0 0 0 0 0 0 0 0 0 0 0 0 0 0 0 0 0 0 0 0 0 0 0 0 0 0 0 0 167 138 57 11 54 150 260 200 277 178 87 52 85 0 13 26 52
0 0 0 0 0 0 0 0 0 0 0 0 0 0 0 0 0 0 0 0 0 0 0 0 0 0 0 31 9 48 16 29 17 218 237 164 131 160 91 176 43 7 26 26 33
0 0 0 0 0 0 0 0 0 0 0 0 0 0 0 0 0 0 0 0 0 0 0 0 0 0 0 0 0 15 12 0 0 30 256 31 16 51 147 316 301 7 19 33 25
0 0 0 0 0 0 0 0 0 0 0 0 0 0 0 0 0 0 0 0 0 0 0 0 0 0 0 0 0 0 0 0 0 36 229 83 71 46 82 134 224 41 1 7 1
0 0 0 0 0 0 0 0 0 0 0 0 0 0 0 0 0 0 0 0 0 0 0 0 0 0 0 0 0 0 0 0 14 170 297 142 74 89 25 44 71 141 6 0 0
0 0 0 0 0 0 0 0 0 0 0 0 0 0 0 0 0 0 0 0 0 0 0 0 0 0 0 0 0 0 0 0 187 297 290 170 90 64 125 30 67 48 12 32 3
0 0 0 0 0 0 0 0 0 0 0 0 0 0 0 0 0 0 0 0 0 0 0 0 0 0 0 0 0 0 0 0 31 189 276 159 115 115 310 316 143 58 7 15 1
1 0 0 0 0 0 0 0 0 0 0 0 0 0 0 0 0 0 0 0 0 0 0 0 0 0 0 0 0 0 0 0 0 69 227 178 145 134 261 210 325 118 21 6 0
0 0 0 0 0 0 0 0 0 0 0 0 0 0 0 0 0 0 0 0 0 0 0 0 0 0 0 0 0 0 0 0 0 0 0 2 72 85 113 196 283 238 47 43 5
0 0 0 0 0 0 0 0 0 0 0 0 0 0 0 0 0 0 0 0 0 0 0 0 0 0 0 0 0 0 0 0 0 0 0 0 21 144 127 221 415 302 75 34 1
0 0 0 0 0 0 0 0 0 0 0 0 0 0 0 0 0 0 0 0 0 0 0 0 0 0 0 0 0 0 0 0 0 0 81 243 187 146 85 151 97 124 155 54 1
0 0 0 0 0 0 0 0 0 0 0 0 0 0 0 0 0 0 0 0 0 0 0 0 0 0 0 0 0 0 0 0 0 0 0 109 0 224 89 158 22 0 203 140 30
0 0 0 0 0 0 0 0 0 0 0 0 0 0 0 0 0 0 0 0 0 0 0 0 0 0 0 0 0 0 0 0 0 0 0 0 0 0 0 110 163 32 120 266 133
0 0 0 0 0 0 0 0 0 0 0 0 0 0 0 0 0 0 0 0 0 0 0 0 0 0 0 0 0 0 0 0 0 0 0 0 0 0 0 0 38 106 211 200 194
0 0 0 0 0 0 0 0 0 0 0 0 0 0 0 0 0 0 0 0 0 0 0 0 0 0 0 0 0 0 0 0 0 0 0 0 0 0 0 0 28 37 239 259 231
0 0 0 0 0 0 0 0 0 0 0 0 0 0 0 0 0 0 0 0 0 0 0 0 0 0 0 0 0 0 0 0 0 0 0 0 0 0 0 0 0 11 85 360 282
0 0 0 0 0 0 0 0 0 0 0 0 0 0 0 0 0 0 0 0 0 0 0 0 0 0 0 0 0 0 0 0 0 0 0 0 0 0 0 0 0 16 181 250 279
0 0 0 0 0 0 0 0 0 0 0 0 0 0 0 0 0 0 0 0 0 0 0 0 0 0 0 0 0 0 0 0 0 0 0 0 0 0 0 0 2 18 71 305 291
0 0 0 0 0 0 1 0 0 0 0 0 0 0 0 0 0 0 0 0 0 0 0 0 0 0 0 0 0 0 0 0 0 0 0 0 0 0 0 0 0 13 10 62 126
0 0 0 0 0 0 0 0 0 0 0 0 0 0 0 0 0 0 0 0 0 0 0 0 0 0 0 0 0 0 0 0 0 0 0 0 0 0 0 0 0 53 36 3 34
0 0 0 0 0 0 0 0 0 0 0 0 0 0 0 0 0 0 0 0 0 0 0 0 0 0 0 0 0 0 0 0 0 0 0 0 0 0 0 0 0 37 83 57 76
0 0 0 0 0 0 0 0 0 0 0 0 0 0 0 0 0 0 0 0 0 0 0 0 0 0 0 0 0 0 0 0 0 0 0 0 0 0 0 0 0 0 30 15 33
0 0 0 0 0 0 0 0 0 0 0 0 0 0 0 0 0 0 0 0 0 0 0 0 0 0 0 0 0 0 0 0 0 0 0 0 0 0 0 0 0 0 0 2 2
0 0 0 0 0 0 0 0 0 0 0 0 0 0 0 0 0 0 0 0 0 0 0 0 0 0 0 0 0 0 0 0 0 0 0 0 0 0 0 0 0 0 0 0 0
0 0 0 0 0 0 0 0 0 0 0 0 0 0 0 0 0 0 0 0 0 0 0 0 0 0 0 0 0 0 0 0 0 0 0 0 0 0 0 0 0 0 0 0 0
CIN
0 0 0 0 0 0 0 0 0 0 0 0 0 0 0 0 0 0 0 0 0 0 0 0 0 0 -131 -73 -35 -26 -28 -41 -19 -16 -15 -16 -17 -17 -29 -68 -19 -36 -19 -141 -59
0 0 0 0 0 0 0 0 0 0 0 0 0 0 0 0 0 0 0 0 0 0 0 0 0 0 -73 -83 -50 -34 -36 -47 -44 -41 -37 -19 -16 -34 -41 -19 -15 0 -151 -129 -45
0 0 0 0 0 0 0 0 0 0 0 0 0 0 0 0 0 0 0 0 0 0 0 0 0 0 0 0 -82 -108 -54 -65 -38 -24 -33 -35 -20 -52 -53 -35 -40 0 -164 -116 -115
0 0 0 0 0 0 0 0 0 0 0 0 0 0 0 0 0 0 0 0 0 0 0 0 0 0 0 -163 -149 -131 -106 -78 -78 -25 -34 -33 -58 -41 -41 -27 -71 -62 -116 -120 -151
0 0 0 0 0 0 0 0 0 0 0 0 0 0 0 0 0 0 0 0 0 0 0 0 0 0 0 0 0 -118 -105 0 0 -61 -48 -120 -59 -28 -24 -47 -29 -36 -127 -97 -85
0 0 0 0 0 0 0 0 0 0 0 0 0 0 0 0 0 0 0 0 0 0 0 0 0 0 0 0 0 0 0 0 0 -97 -68 -83 -80 -66 -63 -58 -47 -27 -47 -80 -35
0 0 0 0 0 0 0 0 0 0 0 0 0 0 0 0 0 0 0 0 0 0 0 0 0 0 0 0 0 0 0 0 -93 -96 -47 -85 -65 -64 -93 -83 -60 -15 -44 0 -51
0 0 0 0 0 0 0 0 0 0 0 0 0 0 0 0 0 0 0 0 0 0 0 0 0 0 0 0 0 0 0 0 -95 -64 -64 -58 -33 -107 -131 -125 -59 -55 -49 -91 -40
0 0 0 0 0 0 0 0 0 0 0 0 0 0 0 0 0 0 0 0 0 0 0 0 0 0 0 0 0 0 0 0 -26 -30 -63 -67 -44 -130 -119 -66 -103 -72 -25 -104 -42
0 0 0 0 0 0 0 0 0 0 0 0 0 0 0 0 0 0 0 0 0 0 0 0 0 0 0 0 0 0 0 0 0 -43 -35 -41 -43 -145 -127 -123 -60 -46 -70 -32 -22
0 0 0 0 0 0 0 0 0 0 0 0 0 0 0 0 0 0 0 0 0 0 0 0 0 0 0 0 0 0 0 0 0 0 0 -40 -79 -114 -172 -140 -59 -24 -79 -124 -32
0 0 0 0 0 0 0 0 0 0 0 0 0 0 0 0 0 0 0 0 0 0 0 0 0 0 0 0 0 0 0 0 0 0 0 0 -80 -90 -161 -125 -69 -32 -64 -143 -20
0 0 0 0 0 0 0 0 0 0 0 0 0 0 0 0 0 0 0 0 0 0 0 0 0 0 0 0 0 0 0 0 0 0 -100 -73 -25 -45 -133 -129 -160 -92 -52 -85 -19
0 0 0 0 0 0 0 0 0 0 0 0 0 0 0 0 0 0 0 0 0 0 0 0 0 0 0 0 0 0 0 0 0 0 0 -63 0 -18 -82 -111 -227 0 -65 -84 -122
0 0 0 0 0 0 0 0 0 0 0 0 0 0 0 0 0 0 0 0 0 0 0 0 0 0 0 0 0 0 0 0 0 0 0 0 0 0 0 -155 -177 -198 -133 -142 -126
0 0 0 0 0 0 0 0 0 0 0 0 0 0 0 0 0 0 0 0 0 0 0 0 0 0 0 0 0 0 0 0 0 0 0 0 0 0 0 0 -165 -239 -195 -179 -103
0 0 0 0 0 0 0 0 0 0 0 0 0 0 0 0 0 0 0 0 0 0 0 0 0 0 0 0 0 0 0 0 0 0 0 0 0 0 0 0 -156 -221 -231 -209 -186
0 0 0 0 0 0 0 0 0 0 0 0 0 0 0 0 0 0 0 0 0 0 0 0 0 0 0 0 0 0 0 0 0 0 0 0 0 0 0 0 0 -255 -228 -190 -229
0 0 0 0 0 0 0 0 0 0 0 0 0 0 0 0 0 0 0 0 0 0 0 0 0 0 0 0 0 0 0 0 0 0 0 0 0 0 0 0 0 -301 -285 -256 -270
0 0 0 0 0 0 0 0 0 0 0 0 0 0 0 0 0 0 0 0 0 0 0 0 0 0 0 0 0 0 0 0 0 0 0 0 0 0 0 0 -77 -260 -304 -290 -230
0 0 0 0 0 0 -35 0 0 0 0 0 0 0 0 0 0 0 0 0 0 0 0 0 0 0 0 0 0 0 0 0 0 0 0 0 0 0 0 0 0 -274 -276 -315 -303
0 0 0 0 0 0 0 0 0 0 0 0 0 0 0 0 0 0 0 0 0 0 0 0 0 0 0 0 0 0 0 0 0 0 0 0 0 0 0 0 0 -294 -321 -117 -350
0 0 0 0 0 0 0 0 0 0 0 0 0 0 0 0 0 0 0 0 0 0 0 0 0 0 0 0 0 0 0 0 0 0 0 0 0 0 0 0 0 -398 -379 -359 -376
0 0 0 0 0 0 0 0 0 0 0 0 0 0 0 0 0 0 0 0 0 0 0 0 0 0 0 0 0 0 0 0 0 0 0 0 0 0 0 0 0 -15 -437 -417 -384
0 0 0 0 0 0 0 0 0 0 0 0 0 0 0 0 0 0 0 0 0 0 0 0 0 0 0 0 0 0 0 0 0 0 0 0 0 0 0 0 0 0 0 0 0
0 0 0 0 0 0 0 0 0 0 0 0 0 0 0 0 0 0 0 0 0 0 0 0 0 0 0 0 0 0 0 0 0 0 0 0 0 0 0 0 0 0 0 0 0
0 0 0 0 0 0 0 0 0 0 0 0 0 0 0 0 0 0 0 0 0 0 0 0 0 0 0 0 0 0 0 0 0 0 0 0 0 0 0 0 0 0 0 0 0
Wind_Speed
32 32 32 32 31 31 30 30 29 28 27 27 26 25 25 24 23 19 23 16 12 11 2 2 7 8 6 8 12 12 14 16 20 19 15 19 19 4 9 16 6 14 18 30 31
33 33 33 33 32 32 31 31 30 28 27 27 27 25 24 22 22 27 23 9 8 2 5 3 4 2 6 9 10 10 13 14 17 19 16 19 18 18 9 8 16 14 21 27 30
34 34 34 34 33 33 32 32 30 29 28 27 26 24 22 20 21 19 11 5 1 5 5 5 3 6 10 11 10 9 12 13 16 18 13 17 16 18 18 21 20 18 23 27 27
36 35 35 35 34 34 33 32 31 29 28 27 24 22 20 18 17 16 4 3 4 3 6 5 6 9 15 14 13 15 19 23 19 14 14 13 10 11 16 5 6 22 23 24 26
37 37 36 36 35 34 34 33 32 30 28 26 23 20 19 20 21 13 4 2 4 5 6 5 5 10 12 14 14 16 25 24 24 19 10 11 12 9 9 6 21 33 22 23 22
37 37 37 37 36 35 35 34 32 30 28 25 22 17 18 20 14 6 3 2 6 7 9 8 10 10 17 19 16 15 24 28 28 5 6 9 11 10 9 7 9 33 21 20 22
38 38 38 38 37 36 36 35 33 30 27 22 18 16 19 18 17 5 1 5 5 6 10 14 11 12 14 18 21 26 27 25 16 5 8 8 12 13 10 7 3 13 18 20 24
39 39 39 38 38 37 36 36 34 31 23 17 13 17 21 17 12 9 10 13 13 12 14 13 13 16 16 19 19 19 18 18 15 6 10 10 14 10 17 23 34 28 18 16 24
39 39 40 39 38 36 36 35 30 20 14 11 15 17 21 21 17 19 12 13 10 13 18 10 12 18 18 20 18 16 17 16 12 14 11 17 17 13 20 3 28 35 26 18 22
36 40 39 39 37 35 34 27 14 11 12 14 18 20 20 17 15 10 12 8 12 10 12 15 15 18 18 17 19 16 18 15 15 8 14 16 22 10 7 3 7 24 28 27 21
38 40 39 39 37 33 26 16 17 18 18 21 18 20 17 18 12 12 10 13 13 13 18 18 20 22 21 19 20 18 19 22 21 15 22 28 18 7 3 2 9 33 26 27 19
39 39 39 38 35 29 15 17 18 18 25 26 24 25 25 18 18 14 8 14 16 19 16 18 25 21 20 21 22 22 21 22 23 18 21 25 22 12 11 12 1 14 34 25 28
38 39 38 37 31 13 16 18 22 21 20 23 20 20 17 13 17 16 13 14 19 20 21 22 20 21 22 23 23 25 21 20 23 25 18 11 15 16 20 18 20 29 30 35 31
37 33 35 34 15 18 15 21 24 16 20 21 20 19 16 14 17 14 14 16 17 22 21 23 24 23 24 25 21 27 20 22 23 20 20 17 16 16 21 31 27 31 35 37 39
23 26 26 20 19 17 20 23 19 14 21 14 15 13 14 16 11 13 13 13 17 18 21 21 21 22 24 25 20 24 21 23 23 20 18 17 16 16 7 34 36 34 34 41 38
8 14 14 15 7 18 22 21 15 16 18 13 11 14 14 14 13 11 14 13 15 16 19 22 20 19 21 25 24 25 22 18 18 18 22 19 18 20 17 30 32 20 24 28 45
6 2 12 13 11 18 19 13 13 16 15 13 12 13 14 15 13 13 14 16 19 23 24 21 21 22 20 22 20 19 20 24 25 25 24 16 17 17 28 29 31 24 25 41 42
6 8 15 12 12 17 14 9 11 14 13 15 13 10 14 14 15 14 12 13 15 18 20 22 23 20 20 20 22 21 22 23 27 25 22 18 21 16 19 22 31 24 25 29 41
2 16 15 16 18 17 8 4 9 11 13 13 7 9 14 14 12 11 10 14 15 16 19 20 19 17 13 12 19 21 22 21 21 20 23 22 20 20 22 22 21 27 31 39 44
19 16 18 8 17 9 7 6 8 11 11 8 9 10 12 13 13 13 15 16 16 14 15 16 20 17 18 17 15 16 19 24 23 28 29 23 20 23 23 22 21 22 32 35 40
21 22 8 11 16 6 9 10 11 13 12 10 11 10 10 12 11 14 16 14 16 17 13 16 18 20 17 18 21 19 22 22 22 22 27 26 23 22 22 22 21 22 25 34 32
22 23 2 20 18 17 10 14 15 16 14 13 11 10 11 12 12 14 14 17 20 17 18 18 17 21 20 16 8 10 16 18 26 27 23 23 23 22 20 20 21 22 24 28 38
21 23 26 20 19 18 12 15 16 17 17 16 15 13 13 16 15 13 15 17 17 16 17 18 20 23 22 19 18 19 20 19 17 21 25 28 28 24 22 20 21 21 22 18 15
19 22 24 24 16 15 16 16 15 17 14 13 16 15 15 16 14 16 17 17 17 17 17 17 20 22 29 26 25 26 24 21 21 25 27 28 31 26 24 23 22 21 20 19 16
23 22 22 21 20 18 15 15 15 15 14 15 14 15 17 15 15 17 18 19 18 20 19 19 22 20 19 23 25 28 28 26 26 25 29 30 29 28 26 24 22 20 19 18 18
22 21 22 22 20 18 16 15 15 14 14 15 12 13 13 12 14 17 19 19 19 20 19 19 20 21 24 24 25 31 31 30 29 27 30 31 30 26 25 23 22 21 20 19 19
22 20 20 23 21 19 17 16 16 15 16 16 15 14 16 17 17 17 16 17 19 20 20 19 19 22 28 27 29 25 20 22 25 26 30 37 30 27 27 25 24 23 22 21 20
Wind_Direction
323 322 321 318 316 314 313 310 305 300 295 290 288 280 280 280 276 287 265 280 271 263 216 248 273 270 277 298 290 310 322 314 5 22 49 111 99 83 353 75 255 231 102 120 120
322 320 318 317 316 315 312 310 306 302 298 295 290 287 284 288 287 257 259 277 273 157 226 199 229 221 280 290 307 315 324 324 4 25 63 99 103 93 36 237 212 61 103 117 121
325 322 321 318 316 314 312 310 307 302 297 296 293 293 291 297 287 283 284 256 163 133 256 252 228 251 269 287 288 318 312 317 346 9 61 88 79 105 97 174 208 105 118 126 127
324 322 321 319 317 315 312 308 306 304 298 295 296 298 298 297 287 294 4 156 166 207 259 251 230 248 260 269 274 287 280 244 259 339 35 72 19 62 110 3 94 128 126 128 135
324 321 319 316 315 313 311 309 304 302 300 296 295 297 297 286 273 294 72 214 236 229 245 222 202 246 257 273 278 278 267 263 260 301 9 37 35 335 51 38 194 157 131 135 136
327 320 316 314 311 309 307 304 303 300 298 296 295 299 291 280 286 300 68 252 246 241 249 236 248 246 260 262 277 293 278 262 263 29 16 14 16 349 66 72 287 163 138 140 142
326 320 316 313 310 308 305 300 296 297 296 296 301 298 284 274 283 279 297 288 252 233 246 243 264 260 271 266 267 248 251 271 301 350 313 25 343 353 50 98 199 210 135 139 147
329 322 317 312 310 309 306 300 293 290 293 300 304 294 276 277 289 275 272 275 262 257 260 246 253 264 273 275 279 279 288 283 285 289 286 299 322 24 100 122 190 147 139 136 148
336 326 318 313 310 307 304 301 298 299 298 302 295 288 271 274 270 265 265 264 267 257 249 257 255 264 271 268 274 283 276 287 301 266 291 275 290 288 126 36 199 161 152 145 147
346 323 317 313 309 307 304 303 324 322 302 294 284 278 272 268 272 278 253 258 266 244 249 248 256 261 264 263 257 269 272 279 287 294 287 282 272 293 75 77 251 150 159 156 152
338 319 317 314 310 306 308 308 300 291 283 269 274 271 273 280 277 268 261 247 265 244 243 244 249 251 254 261 263 271 270 264 268 294 271 210 282 285 308 21 108 177 162 162 158
322 318 315 314 305 302 320 296 298 293 276 268 263 260 263 274 265 262 252 249 248 241 244 246 249 254 261 263 264 263 266 264 269 283 290 255 271 268 269 275 341 145 191 162 164
335 325 317 314 303 346 316 300 300 286 279 269 258 257 261 267 264 256 247 256 243 243 243 247 259 254 258 260 261 257 259 263 271 280 299 313 281 263 256 264 255 220 227 217 172
346 353 345 321 342 320 328 296 291 290 273 262 250 254 259 266 263 268 255 252 254 243 247 253 256 258 257 256 261 253 258 267 276 284 279 288 283 274 257 237 247 213 224 216 191
10 8 8 2 315 314 300 284 287 281 254 264 249 267 255 254 252 257 263 265 250 249 248 252 256 256 255 252 259 254 264 269 275 281 285 280 284 283 275 206 216 211 205 213 184
344 27 45 70 332 289 280 280 275 261 252 262 255 245 238 254 261 258 265 270 266 259 257 255 263 264 260 258 258 259 268 275 274 277 271 274 278 277 273 225 222 181 183 182 209
297 28 76 94 154 277 283 267 252 252 265 254 250 246 239 239 251 261 261 256 255 247 250 257 260 263 268 261 265 263 260 260 259 260 263 272 278 278 228 246 219 184 178 201 216
295 84 82 106 198 276 284 278 247 259 267 267 259 239 235 243 253 259 263 257 276 261 251 249 251 263 275 262 260 262 257 257 256 255 257 269 264 280 297 294 241 192 184 181 212
85 76 91 89 56 14 277 337 275 271 279 257 257 250 251 252 253 259 266 267 282 276 255 252 255 270 287 292 267 261 259 264 263 268 265 266 271 278 304 308 291 260 239 210 220
64 85 81 141 88 287 318 345 291 306 291 295 261 274 250 258 254 261 266 281 274 291 275 268 256 272 278 280 295 273 273 258 263 256 256 264 270 276 295 300 302 281 251 242 232
62 61 85 131 114 198 264 272 286 308 316 298 279 275 272 266 271 271 276 288 291 283 299 278 270 267 279 284 278 275 269 267 266 266 258 254 262 293 292 297 299 294 274 250 251
46 37 88 67 93 126 308 276 300 295 309 298 302 305 286 283 283 279 277 283 292 292 279 287 281 268 276 292 296 312 295 281 259 259 263 259 260 297 297 302 304 306 298 267 236
39 28 16 31 28 31 260 349 340 312 297 289 288 295 297 281 278 278 284 296 306 297 290 289 280 268 268 272 283 284 297 294 280 269 262 254 258 291 299 307 316 312 317 314 290
47 20 6 11 357 4 356 296 342 327 321 303 288 289 293 292 295 276 279 295 302 302 305 301 288 280 267 268 277 277 287 289 281 265 263 257 269 282 292 297 309 314 320 317 308
49 46 35 355 348 0 345 328 332 308 326 319 305 303 284 288 286 280 283 285 299 303 301 298 285 285 284 281 279 278 279 281 276 271 262 265 272 276 286 292 299 311 316 319 314
53 55 52 19 359 352 335 322 335 322 323 318 328 325 328 301 297 287 285 286 290 297 301 304 288 288 283 288 289 280 278 277 273 269 266 267 269 282 286 291 294 301 310 313 314
60 69 60 35 27 10 339 339 334 333 333 341 338 324 313 307 303 305 311 306 299 299 302 300 296 293 282 289 287 280 288 285 276 277 269 262 267 279 279 285 287 290 295 302 306